Location: Gisborne
(38.6530°S, 178.0040°E)
Time: 00:31:53
(UTC+13:00)

Cosmos 1633 - Pass Details

Date: 24 January 2019
Orbit: 466 x 485 km, 82.5° (Epoch: 22 February)

Event Time Altitude Azimuth Distance (km) Brightness Sun altitude
Rises 21:39:02 0° 170° (S) 2,551 6.6 -12.4°
Reaches altitude 10° 21:41:38 10° 151° (SSE) 1,666 5.4 -12.8°
Maximum altitude 21:44:14 18° 105° (ESE) 1,224 4.3 -13.2°
Enters shadow 21:45:02 17° 88° (E) 1,270 4.2 -13.3°
